Location: Rochester
(43.1610°N, 77.6109°W)
Time: 03:20:35
(UTC-05:00)

BlueWalker 3 - Pass Details

Date: 10 October 2023
Orbit: 489 x 503 km, 53.2° (Epoch: 04 December)

Event Time Altitude Azimuth Distance (km) Brightness Sun altitude
Rises 20:57:52 0° 250° (WSW) 2,553 6.3 -26.4°
Reaches altitude 10° 21:00:06 10° 257° (WSW) 1,675 5.3 -26.8°
Enters shadow 21:02:40 34° 287° (WNW) 820 3.5 -27.3°
